Address 0x7e4aa755550152a522d9578621ea22edab204308

Txn Hash Method
Block
From
To
Value [Txn Fee]
0x7ae2b4db90c164c77f63ec269752dd37cc85cdcc8ea8e6efaf2f0567ea625aabTransfer168352092022-07-03 7:52:501 hr 16 mins ago0x7e4aa755550152a522d9578621ea22edab204308OUT Step App: FITFI Token0 AVAX0.0038931100
0x3f565cddb763c9a8663a85754f517dde28592b19cc904f950a34d5e0ef808b7eTransfer168297062022-07-03 4:49:194 hrs 20 mins ago0x7e4aa755550152a522d9578621ea22edab204308OUT Step App: FITFI Token0 AVAX0.0038931100
0x7a55a4e0b893de676d9f7253208525428d4c1fbb70f6935dcb4de59d064073ecTransfer168288432022-07-03 4:20:224 hrs 49 mins ago0x7e4aa755550152a522d9578621ea22edab204308OUT Step App: FITFI Token0 AVAX0.0056043100
0x6f4d35ce0dbf9b1527fe4583ce624c213668052c3416868b0b23552e5875b8d4Transfer168236052022-07-03 1:24:517 hrs 44 mins ago0x7e4aa755550152a522d9578621ea22edab204308OUT Step App: FITFI Token0 AVAX0.0056043100
0xf031cf5da8320feb33827768da542e45c348450b5a14425b0ed02f054c4d7a6aTransfer168182922022-07-02 22:27:2110 hrs 42 mins ago0x7e4aa755550152a522d9578621ea22edab204308OUT Step App: FITFI Token0 AVAX0.0038931100
0x03b7b02e98d3fbd109e3b2caa983e39398569bea47460a7e58bbeb9422608e06Transfer168124372022-07-02 19:11:0013 hrs 58 mins ago0x7e4aa755550152a522d9578621ea22edab204308OUT Step App: FITFI Token0 AVAX0.0038943100
0x5302fba3ad6f4045f5de4c560a6e7d6d69cbdca1274350c3f2cde4d006177150Transfer168124272022-07-02 19:10:3913 hrs 58 mins ago0x7e4aa755550152a522d9578621ea22edab204308OUT Step App: FITFI Token0 AVAX0.0056019100
0x8ca3260055192c0198c5eef3086d5122daf05271271ce0bb79cb0ea202ddcfe4Transfer168102022022-07-02 17:56:1515 hrs 13 mins ago0x7e4aa755550152a522d9578621ea22edab204308OUT 0x6e84a6216ea6dacc71ee8e6b0a5b7322eebc0fdd0 AVAX0.0051757100
0x3fb76cd4ada60fa04939b27074153ccb6e277f8a35af2c4f095b8afeb1cb7d5dTransfer168085062022-07-02 16:59:1216 hrs 10 mins ago0x7e4aa755550152a522d9578621ea22edab204308OUT Step App: FITFI Token0 AVAX0.0056043100
0x87f03f1cb3e009a51cad13530f38f553ef0a853784ebde93c38dbc2c20ab7edcTransfer168077212022-07-02 16:33:0116 hrs 36 mins ago0x7e4aa755550152a522d9578621ea22edab204308OUT Step App: FITFI Token0 AVAX0.0056043100
0xcc927e38829db4407dc47830df4999b31a015660a7bcdedf6b0b5b50230290bcTransfer168072802022-07-02 16:18:1916 hrs 51 mins ago0x7e4aa755550152a522d9578621ea22edab204308OUT Step App: FITFI Token0 AVAX0.0056031100
0xb686b2f379b4f387201fe77af32c199476a0d5b574b2453c1f1d98b2fca91dcfTransfer168068382022-07-02 16:03:2917 hrs 5 mins ago0x7e4aa755550152a522d9578621ea22edab204308OUT Step App: FITFI Token0 AVAX0.0038931100
0xa96944fb71f48552703d3979d8d80185b72eb1ef0f72ff877f28a4d1fa8081ccTransfer168058132022-07-02 15:29:0617 hrs 40 mins ago0x7e4aa755550152a522d9578621ea22edab204308OUT Step App: FITFI Token0 AVAX0.0038931100
0x18bc443ec1eeff92c8caf29d9681937044e11901f7b20634dceed5c24d562a0aTransfer168027092022-07-02 13:45:1119 hrs 24 mins ago0x7e4aa755550152a522d9578621ea22edab204308OUT Step App: FITFI Token0 AVAX0.0056055100
0x2623187b9058c3fc8479abe366b52dd6ccfd7ec908f593d35a6b6848f034f176Transfer168015962022-07-02 13:08:0020 hrs 1 min ago0x7e4aa755550152a522d9578621ea22edab204308OUT Step App: FITFI Token0 AVAX0.0038943100
0x4ab8bb24a485cdd9a35807b7c6783b216bbd6939cba3f6182586b05b84ef48f2Transfer168014962022-07-02 13:04:3920 hrs 4 mins ago0x7e4aa755550152a522d9578621ea22edab204308OUT Step App: FITFI Token0 AVAX0.0056031100
0x49e39396d7ccf217421af5e107ea679444afaed8bda22053f866214c390d7008Transfer167978462022-07-02 11:02:4222 hrs 6 mins ago0x7e4aa755550152a522d9578621ea22edab204308OUT Step App: FITFI Token0 AVAX0.0038943100
0x3eb63eb0af11e68deff8b08700db3d11021e99c6e358c35e44c41de2f5cccee2Transfer167976362022-07-02 10:55:4222 hrs 13 mins ago0x7e4aa755550152a522d9578621ea22edab204308OUT Step App: FITFI Token0 AVAX0.0038931100
0x7a304390fcebd867be3852907e22394dcd4dba63e22d6748187d7e79d70789efTransfer167943022022-07-02 9:04:161 day 5 mins ago0x7e4aa755550152a522d9578621ea22edab204308OUT Step App: FITFI Token0 AVAX0.0038931100
0xb02051a52c71e330a1a22e462e1ad96fe9bc5bddf60b7c4e16a3051dee9f553dTransfer167929492022-07-02 8:19:031 day 50 mins ago0x7e4aa755550152a522d9578621ea22edab204308OUT Step App: FITFI Token0 AVAX0.0056019100
0x48bc3f5317eb9c3813c050f0b4fc30bf295949633366ded56065be6ff4d552ebTransfer167886442022-07-02 5:55:241 day 3 hrs ago0x7e4aa755550152a522d9578621ea22edab204308OUT Step App: FITFI Token0 AVAX0.0056019100
0xfd2bccac94a0f5652133b838d3261821ef92ef0d634acfbd73f1e2e5f5492187Transfer167807592022-07-02 1:30:291 day 7 hrs ago0x7e4aa755550152a522d9578621ea22edab204308OUT Step App: FITFI Token0 AVAX0.0056031100
0x50e992e2d253856058223ef47ce87912d8a8380313d1e4d99d907e21862b9cd4Transfer167781922022-07-02 0:05:151 day 9 hrs ago0x7e4aa755550152a522d9578621ea22edab204308OUT Step App: FITFI Token0 AVAX0.0038943100
0x845dde8be7ba8c157b37e0f2baa243fc1e5c24ac47ec3550db130bc1324784b5Transfer167778512022-07-01 23:53:551 day 9 hrs ago0x7e4aa755550152a522d9578621ea22edab204308OUT Step App: FITFI Token0 AVAX0.0038943100
0x2b57812521ac4bf720ac84d1a400200a991f1d4b107003ccdc5cae362148d872Transfer167771212022-07-01 23:29:241 day 9 hrs ago0x7e4aa755550152a522d9578621ea22edab204308OUT Step App: FITFI Token0 AVAX0.0056055100
[ Download CSV Export 
Parent Txn Hash Block From To Value
Loading

Contract Name:
0

Compiler Version
0

Optimization Enabled:
0

Other Settings:
-NA-
Block Transaction Gas Used Reward
Age Block Fee Address BC Fee Address Voting Power Jailed Incoming
Block Uncle Number Difficulty Gas Used Reward
Loading
Make sure to use the "Vote Down" button for any spammy posts, and the "Vote Up" for interesting conversations.